Location: *
(43.4667°N, 11.6833°E)
Time: 02:40:47
(UTC+00:00)

USA 215 - Pass Details

Date: 19 July 2019
Orbit: 1102 x 1106 km, 123.0° (Epoch: 11 August)

Event Time Altitude Azimuth Distance (km) Brightness Sun altitude
Rises 19:25:37 0° 48° (NE) 3,925 6.0 -6.3°
Reaches altitude 10° 19:28:06 10° 48° (NE) 2,965 5.4 -6.7°
Maximum altitude 19:34:39 81° 322° (NW) 1,119 3.5 -7.6°
Drops below altitude 10° 19:41:11 10° 236° (WSW) 2,956 5.7 -8.6°
Sets 19:43:40 0° 236° (SW) 3,912 6.4 -8.9°
